Location: Boiro
(42.6475°N, 8.8834°W)
Time: 01:39:08
(UTC+01:00)

Transit 2A Rocket - Pass Details

Date: 30 November 2021
Orbit: 584 x 917 km, 66.7° (Epoch: 23 January)

Event Time Altitude Azimuth Distance (km) Brightness Sun altitude
Rises 10:08:19 0° 211° (SSW) 3,266 8.4 11.4°
Reaches altitude 10° 10:10:38 10° 212° (SSW) 2,389 7.8 11.7°
Maximum altitude 10:16:12 84° 300° (WNW) 870 5.5 12.4°
Drops below altitude 10° 10:22:15 10° 30° (NNE) 2,580 7.6 13.2°
Sets 10:24:50 0° 31° (NNE) 3,546 8.3 13.5°
